Back to catalog

ONEWEB-0516

AliveCommunicationsPO
NORAD 54134·PAYLOAD·🇬🇧 United Kingdom

Launched Oct 22, 2022 from Satish Dhawan Space Centre

Loading…

Next Passes (next 24 hours)

TLE

FreshSource: CelesTrak SupGP

Epoch: Sep 14, 2026, 15:14 UTC

1 54134C 22138X   26257.63491157 -.00000262  00000+0 -65424-3 0  2573
2 54134  87.9109 287.1526 0001866  90.1135  23.3824 13.19728587    18

Track ONEWEB-0516 in real time with AllMySat

Download on the App Store